CAPE
0 0 0 0 0 0 0 0 0 0 0 0 0 0 0 0 0 0 0 0 0 0 0 0 0 0 0 0 0 0 0 0 0 0 0 0 0 0 0 0 0 1 2 9 13
0 0 0 0 0 0 0 0 0 0 0 0 0 0 0 0 0 0 0 0 0 0 0 0 0 0 0 0 0 0 0 0 0 0 0 0 0 0 0 0 0 0 1 3 0
0 0 0 0 0 0 0 0 0 0 0 0 0 0 0 0 0 0 0 0 0 0 0 0 0 0 0 0 0 0 0 0 0 0 0 0 0 0 0 0 0 0 1 0 0
0 0 0 0 0 0 0 0 0 0 0 0 0 0 0 0 0 0 0 0 0 0 0 0 0 0 0 0 0 0 0 0 0 0 0 0 0 0 0 0 0 2 0 0 0
0 0 0 0 0 0 0 0 0 0 0 0 0 0 0 0 0 0 0 0 0 0 0 0 0 0 0 0 0 0 0 0 0 0 0 0 0 0 0 0 0 0 0 0 0
0 0 0 0 0 0 0 0 0 0 0 0 0 0 0 0 0 0 0 0 0 0 0 0 0 0 0 0 0 0 0 0 0 0 0 0 0 0 0 0 0 0 0 0 0
0 0 0 0 0 0 0 0 0 0 0 0 0 0 0 0 0 0 0 0 0 0 0 0 0 0 0 0 0 0 0 0 0 0 0 0 0 0 0 0 0 0 0 0 0
0 0 0 0 0 0 0 0 0 0 0 0 0 0 0 0 0 0 0 0 0 0 0 0 0 0 0 0 0 0 0 0 0 0 0 0 0 0 0 0 0 0 0 0 0
0 0 0 0 0 0 0 0 0 0 0 0 0 0 0 0 0 0 0 0 0 0 0 0 0 0 0 0 0 0 0 0 0 0 0 0 0 0 0 0 0 0 0 0 0
0 0 0 0 0 0 0 0 0 0 0 0 0 0 0 0 0 0 0 0 0 0 0 0 0 0 0 0 0 0 0 0 0 0 0 0 0 0 0 0 0 0 0 0 0
0 0 0 0 0 0 0 0 0 0 0 0 0 0 0 0 0 0 0 0 0 0 0 0 0 0 0 0 0 0 0 0 0 0 0 0 0 0 0 0 0 0 0 0 0
0 0 0 0 0 0 0 0 0 0 0 0 0 0 0 0 0 0 0 0 0 0 0 0 0 0 0 0 0 0 0 0 0 0 0 0 0 0 0 0 0 0 0 0 0
0 0 0 0 0 0 0 0 0 0 0 0 0 0 0 0 0 0 0 0 0 0 0 0 0 0 0 0 0 0 0 0 0 0 0 0 0 0 0 0 0 0 0 0 0
0 0 0 0 0 0 0 0 0 0 0 0 0 0 0 0 0 0 0 0 0 0 0 0 0 0 0 0 0 0 0 0 0 0 0 0 0 0 0 0 0 0 0 0 0
0 0 0 0 0 0 0 0 0 0 0 0 0 0 0 0 0 0 0 0 0 0 0 0 0 0 0 0 0 0 0 0 0 0 0 0 0 0 0 0 0 0 0 0 0
0 0 0 0 0 0 0 0 0 0 0 0 0 0 0 0 0 0 0 0 0 0 0 0 0 0 0 0 0 0 0 0 0 0 0 0 0 0 0 0 0 0 0 0 0
0 0 0 0 0 0 0 0 0 0 0 0 0 0 0 0 0 0 0 0 0 0 0 0 0 0 0 0 0 0 0 0 0 0 0 0 0 0 0 0 0 0 0 0 0
0 0 0 0 0 0 0 0 0 0 0 0 0 0 0 0 0 0 0 0 0 0 0 0 0 0 0 0 0 0 0 0 0 0 0 0 0 0 0 0 0 0 0 0 0
0 0 0 0 0 0 0 0 0 0 0 0 0 0 0 0 0 0 0 0 0 0 0 0 0 0 0 0 0 0 0 0 0 0 0 0 0 0 0 0 0 0 0 0 0
0 0 0 0 0 0 0 0 0 0 0 0 0 0 0 0 0 0 0 0 0 0 0 0 0 0 0 0 0 0 0 0 0 0 0 0 0 0 0 0 0 0 0 0 0
0 0 0 0 0 0 0 0 0 0 0 0 0 0 0 0 0 0 0 0 0 0 0 0 0 0 0 0 0 0 0 0 0 0 0 0 0 0 0 0 0 0 0 0 0
0 0 0 0 0 0 0 0 0 0 0 0 0 0 0 0 0 0 0 0 0 0 0 0 0 0 0 0 0 0 0 0 0 0 0 0 0 0 0 0 0 0 0 0 0
0 0 0 0 0 0 0 0 0 0 0 0 0 0 0 0 0 0 0 0 0 0 0 0 0 0 0 0 0 0 0 0 0 0 0 0 0 0 0 0 0 0 0 0 0
0 0 0 0 0 0 0 0 0 0 0 0 0 0 0 0 0 0 0 0 0 0 0 0 0 0 0 0 0 0 0 0 0 0 0 0 0 0 0 0 0 0 0 0 0
0 0 0 0 0 0 0 0 0 0 0 0 0 0 0 0 0 0 0 0 0 0 0 0 0 0 0 0 0 0 0 0 0 0 0 0 0 0 0 0 0 0 0 0 0
0 0 0 0 0 0 0 0 0 0 0 0 0 0 0 0 0 0 0 0 0 0 0 0 0 0 0 0 0 0 0 0 0 0 0 0 0 0 0 0 0 0 0 0 0
0 0 0 0 0 0 0 0 0 0 0 0 0 0 0 0 0 0 0 0 0 0 0 0 0 0 0 0 0 0 0 0 0 0 0 0 0 0 0 0 0 0 0 0 0
CIN
0 0 0 0 0 0 0 0 0 0 0 0 0 0 0 0 0 0 0 0 0 0 0 0 0 0 0 0 0 0 0 0 0 0 0 0 0 0 0 0 0 0 -1 0 -2
0 0 0 0 0 0 0 0 0 0 0 0 0 0 0 0 0 0 0 0 0 0 0 0 0 0 0 0 0 0 0 0 0 0 0 0 0 0 0 0 0 0 -1 -5 0
0 0 0 0 0 0 0 0 0 0 0 0 0 0 0 0 0 0 0 0 0 0 0 0 0 0 0 0 0 0 0 0 0 0 0 0 0 0 0 0 0 0 0 0 0
0 0 0 0 0 0 0 0 0 0 0 0 0 0 0 0 0 0 0 0 0 0 0 0 0 0 0 0 0 0 0 0 0 0 0 0 0 0 0 0 0 -1 0 0 0
0 0 0 0 0 0 0 0 0 0 0 0 0 0 0 0 0 0 0 0 0 0 0 0 0 0 0 0 0 0 0 0 0 0 0 0 0 0 0 0 0 0 0 0 0
0 0 0 0 0 0 0 0 0 0 0 0 0 0 0 0 0 0 0 0 0 0 0 0 0 0 0 0 0 0 0 0 0 0 0 0 0 0 0 0 0 0 0 0 0
0 0 0 0 0 0 0 0 0 0 0 0 0 0 0 0 0 0 0 0 0 0 0 0 0 0 0 0 0 0 0 0 0 0 0 0 0 0 0 0 0 0 0 0 0
0 0 0 0 0 0 0 0 0 0 0 0 0 0 0 0 0 0 0 0 0 0 0 0 0 0 0 0 0 0 0 0 0 0 0 0 0 0 0 0 0 0 0 0 0
0 0 0 0 0 0 0 0 0 0 0 0 0 0 0 0 0 0 0 0 0 0 0 0 0 0 0 0 0 0 0 0 0 0 0 0 0 0 0 0 0 0 0 0 0
0 0 0 0 0 0 0 0 0 0 0 0 0 0 0 0 0 0 0 0 0 0 0 0 0 0 0 0 0 0 0 0 0 0 0 0 0 0 0 0 0 0 0 0 0
0 0 0 0 0 0 0 0 0 0 0 0 0 0 0 0 0 0 0 0 0 0 0 0 0 0 0 0 0 0 0 0 0 0 0 0 0 0 0 0 0 0 0 0 0
0 0 0 0 0 0 0 0 0 0 0 0 0 0 0 0 0 0 0 0 0 0 0 0 0 0 0 0 0 0 0 0 0 0 0 0 0 0 0 0 0 0 0 0 0
0 0 0 0 0 0 0 0 0 0 0 0 0 0 0 0 0 0 0 0 0 0 0 0 0 0 0 0 0 0 0 0 0 0 0 0 0 0 0 0 0 0 0 0 0
0 0 0 0 0 0 0 0 0 0 0 0 0 0 0 0 0 0 0 0 0 0 0 0 0 0 0 0 0 0 0 0 0 0 0 0 0 0 0 0 0 0 0 0 0
0 0 0 0 0 0 0 0 0 0 0 0 0 0 0 0 0 0 0 0 0 0 0 0 0 0 0 0 0 0 0 0 0 0 0 0 0 0 0 0 0 0 0 0 0
0 0 0 0 0 0 0 0 0 0 0 0 0 0 0 0 0 0 0 0 0 0 0 0 0 0 0 0 0 0 0 0 0 0 0 0 0 0 0 0 0 0 0 0 0
0 0 0 0 0 0 0 0 0 0 0 0 0 0 0 0 0 0 0 0 0 0 0 0 0 0 0 0 0 0 0 0 0 0 0 0 0 0 0 0 0 0 0 0 0
0 0 0 0 0 0 0 0 0 0 0 0 0 0 0 0 0 0 0 0 0 0 0 0 0 0 0 0 0 0 0 0 0 0 0 0 0 0 0 0 0 0 0 0 0
0 0 0 0 0 0 0 0 0 0 0 0 0 0 0 0 0 0 0 0 0 0 0 0 0 0 0 0 0 0 0 0 0 0 0 0 0 0 0 0 0 0 0 0 0
0 0 0 0 0 0 0 0 0 0 0 0 0 0 0 0 0 0 0 0 0 0 0 0 0 0 0 0 0 0 0 0 0 0 0 0 0 0 0 0 0 0 0 0 0
0 0 0 0 0 0 0 0 0 0 0 0 0 0 0 0 0 0 0 0 0 0 0 0 0 0 0 0 0 0 0 0 0 0 0 0 0 0 0 0 0 0 0 0 0
0 0 0 0 0 0 0 0 0 0 0 0 0 0 0 0 0 0 0 0 0 0 0 0 0 0 0 0 0 0 0 0 0 0 0 0 0 0 0 0 0 0 0 0 0
0 0 0 0 0 0 0 0 0 0 0 0 0 0 0 0 0 0 0 0 0 0 0 0 0 0 0 0 0 0 0 0 0 0 0 0 0 0 0 0 0 0 0 0 0
0 0 0 0 0 0 0 0 0 0 0 0 0 0 0 0 0 0 0 0 0 0 0 0 0 0 0 0 0 0 0 0 0 0 0 0 0 0 0 0 0 0 0 0 0
0 0 0 0 0 0 0 0 0 0 0 0 0 0 0 0 0 0 0 0 0 0 0 0 0 0 0 0 0 0 0 0 0 0 0 0 0 0 0 0 0 0 0 0 0
0 0 0 0 0 0 0 0 0 0 0 0 0 0 0 0 0 0 0 0 0 0 0 0 0 0 0 0 0 0 0 0 0 0 0 0 0 0 0 0 0 0 0 0 0
0 0 0 0 0 0 0 0 0 0 0 0 0 0 0 0 0 0 0 0 0 0 0 0 0 0 0 0 0 0 0 0 0 0 0 0 0 0 0 0 0 0 0 0 0
Wind_Speed
21 16 13 8 7 7 3 8 9 10 13 14 14 12 9 8 7 6 7 14 16 17 15 15 10 10 9 8 10 10 10 9 11 12 12 15 13 16 16 17 18 17 16 15 15
22 20 15 11 10 10 10 4 6 8 9 11 12 12 11 9 7 5 9 13 14 14 11 10 9 9 8 10 11 11 10 11 12 12 13 15 14 15 15 16 17 17 17 17 19
23 21 18 16 14 12 13 10 7 6 6 9 11 13 13 12 5 7 11 11 11 12 9 9 8 8 7 10 13 12 10 11 13 13 13 14 16 16 13 18 20 17 16 16 18
24 23 20 18 17 14 15 7 9 6 4 8 12 13 11 13 7 9 10 10 10 11 12 8 9 8 8 10 11 10 12 11 13 16 13 14 15 17 18 17 15 15 15 16 19
23 21 19 15 14 14 12 11 12 6 4 8 13 15 13 7 6 8 8 7 7 11 8 8 5 6 7 6 10 12 11 13 15 16 16 16 15 14 18 18 14 14 17 18 18
22 21 19 17 15 15 15 15 13 6 8 7 8 13 14 8 7 6 5 3 3 4 4 7 6 5 6 8 11 14 14 13 16 18 18 15 15 15 18 17 14 14 16 17 19
22 21 20 19 17 16 15 15 16 10 10 8 9 14 8 11 9 5 4 3 3 3 4 6 13 10 6 11 12 13 15 16 20 20 18 16 16 16 19 11 11 12 13 15 18
21 22 22 21 19 17 15 13 17 14 9 12 8 14 15 10 10 2 4 7 2 3 3 5 8 13 11 15 14 15 16 16 18 21 16 17 18 10 13 6 5 7 12 15 18
18 18 19 20 15 14 15 17 11 15 11 10 12 15 13 8 6 4 5 8 10 7 8 7 11 17 16 16 16 19 16 17 18 17 10 9 4 6 8 4 4 7 9 13 16
15 14 15 16 16 15 18 19 19 19 13 15 8 17 8 7 8 5 8 7 9 13 13 13 18 18 19 17 16 17 18 13 8 9 8 8 11 3 8 5 5 7 10 12 15
12 12 13 15 17 19 21 23 25 27 26 28 21 18 11 7 10 3 7 10 8 12 19 19 20 21 13 14 16 15 13 9 7 7 7 3 11 9 3 6 5 7 9 11 13
10 10 10 13 19 22 27 33 30 27 32 23 22 20 16 12 11 4 3 13 8 9 14 14 11 13 13 13 14 12 10 6 5 7 3 3 17 13 4 3 3 6 8 10 13
8 8 8 13 18 18 25 26 21 22 27 22 19 18 16 14 17 8 9 16 12 8 7 18 15 12 14 10 10 10 8 3 2 4 5 5 8 10 10 8 9 9 10 12 15
5 6 8 16 18 16 18 15 16 18 25 15 14 13 10 15 16 10 9 15 13 15 12 13 10 12 13 11 9 7 9 2 2 7 10 19 8 18 16 13 11 10 12 14 16
4 5 15 20 19 17 15 14 16 18 26 11 14 12 13 19 14 7 11 13 18 16 16 15 14 13 12 9 9 8 4 8 12 12 12 15 13 16 21 18 17 13 12 13 15
3 7 15 16 19 16 13 16 17 22 25 18 14 12 16 12 14 9 11 12 16 17 16 16 15 13 10 9 11 11 13 16 15 15 15 16 21 20 19 21 24 23 14 13 15
5 18 22 17 14 12 16 16 21 23 17 18 16 13 16 14 14 12 16 19 16 13 11 10 12 13 12 11 15 19 19 15 14 16 17 19 21 13 19 21 22 24 22 15 17
10 16 20 20 13 15 16 19 24 19 19 17 16 15 18 10 14 13 16 17 21 19 13 10 11 13 16 19 17 21 22 21 14 17 17 24 17 24 23 23 23 22 23 21 20
16 16 17 7 15 16 17 21 20 19 17 15 15 16 15 15 15 13 14 15 14 13 14 11 11 16 19 19 21 21 23 20 19 20 21 19 21 25 26 22 23 22 26 24 23
17 17 17 8 17 17 20 20 19 17 15 14 17 15 14 10 10 10 12 13 13 15 16 13 6 15 16 18 23 20 19 24 25 24 26 23 25 27 27 30 28 26 27 28 29
19 17 19 17 18 23 21 20 18 16 14 14 15 15 14 13 12 13 13 14 14 15 19 16 13 12 16 15 17 20 22 24 23 22 25 31 28 25 30 30 30 30 31 36 34
20 17 19 19 22 21 21 18 18 17 15 15 15 15 14 14 13 14 13 13 14 15 16 17 16 12 18 20 18 18 22 22 24 26 24 28 35 29 28 29 31 33 39 39 36
22 17 22 20 20 21 18 18 16 16 16 15 16 16 15 14 12 14 14 13 14 15 16 16 18 15 20 20 20 20 21 23 24 27 28 30 33 31 33 33 36 40 40 38 34
22 19 23 24 21 20 18 17 16 14 15 15 15 16 15 13 13 11 12 14 14 15 16 16 15 13 16 18 23 22 23 22 23 29 32 30 40 37 38 40 40 40 39 37 35
24 20 20 21 22 21 18 17 16 15 14 14 15 13 14 15 14 14 15 16 16 15 16 17 18 17 16 19 22 24 25 24 24 25 31 37 35 39 39 40 38 39 37 41 39
21 20 20 20 19 19 19 18 16 15 14 14 13 15 12 12 13 14 17 20 19 18 19 21 22 24 25 25 23 26 25 24 25 27 30 33 38 35 33 34 36 39 41 41 41
18 18 19 18 19 18 15 16 18 17 15 14 14 16 13 11 14 15 15 18 19 21 21 24 24 29 28 30 34 30 27 28 29 28 30 36 38 35 35 38 41 41 40 40 41
Wind_Direction
66 69 70 84 95 109 244 278 277 287 297 298 299 281 270 272 326 279 303 271 257 258 250 239 258 264 277 299 304 305 333 333 335 347 1 2 17 7 11 13 6 8 11 13 13
67 70 75 88 95 104 107 175 221 253 240 269 264 245 236 240 250 325 262 280 271 258 251 259 268 274 289 299 310 331 339 337 357 11 8 10 14 8 5 3 1 2 8 4 359
69 73 77 84 93 102 106 117 142 197 213 208 211 215 216 215 225 257 283 280 260 243 266 256 269 290 320 318 318 335 354 25 8 11 22 17 0 355 9 350 346 351 2 7 359
71 74 79 85 91 99 104 124 119 142 195 179 181 182 199 211 215 239 282 277 266 246 235 279 270 300 326 332 326 16 2 15 0 349 8 1 2 354 352 351 6 12 11 5 358
71 73 76 84 92 98 107 115 120 138 145 144 165 174 177 134 183 233 271 263 226 198 230 237 304 297 338 352 9 19 13 360 2 354 1 1 357 4 354 356 10 11 2 359 359
69 71 74 84 94 100 106 112 120 139 144 130 136 161 161 90 209 248 249 263 304 204 218 214 217 34 341 295 332 38 32 10 350 349 355 0 359 357 352 351 360 1 358 358 357
69 71 75 82 91 100 108 115 117 128 149 156 165 162 80 157 191 251 248 201 212 192 6 227 206 251 312 22 26 19 14 0 347 348 0 359 346 345 347 1 6 7 10 9 358
70 72 76 82 89 99 109 120 122 127 135 157 158 141 140 165 176 256 251 200 252 240 305 242 4 28 349 47 6 15 10 5 356 352 0 358 345 7 12 86 96 41 10 3 357
69 71 76 79 79 103 114 113 129 141 149 148 158 144 148 179 163 208 206 203 202 213 343 320 356 30 26 39 24 1 11 5 1 11 31 67 81 112 53 92 39 18 11 2 357
67 68 72 79 75 94 116 121 111 126 144 142 146 145 147 167 182 205 207 205 203 187 170 355 25 31 10 17 22 19 25 68 109 167 205 205 229 183 25 27 8 359 355 351 348
64 66 73 86 81 92 110 113 108 103 101 110 121 134 151 188 180 266 234 199 204 2 35 20 39 35 153 154 144 139 125 139 154 141 226 172 244 245 351 355 340 345 342 342 345
59 63 75 99 96 99 100 98 105 115 103 107 111 119 127 140 149 5 154 159 177 42 153 149 149 156 155 153 144 147 135 145 196 91 52 276 269 264 260 285 318 321 331 338 343
54 57 66 107 108 107 99 104 119 119 107 104 109 110 119 123 122 118 134 139 140 141 149 140 147 163 153 156 143 136 134 145 177 266 49 328 356 28 20 3 348 341 342 341 338
38 57 71 100 105 113 113 128 131 128 108 98 112 116 127 138 125 134 143 143 153 151 161 150 171 156 141 131 125 134 92 95 31 30 29 25 6 7 12 0 351 342 334 334 335
29 72 84 84 99 105 120 132 131 126 99 116 115 127 121 122 141 139 133 135 127 131 134 134 131 125 123 125 109 103 81 54 38 35 24 26 19 15 4 6 357 340 333 329 331
63 89 84 91 90 106 127 125 122 103 98 113 120 119 123 125 128 142 137 139 129 120 118 118 114 114 114 110 86 60 46 31 36 35 28 25 10 359 7 3 0 357 342 333 333
87 72 66 84 98 113 117 121 100 99 117 108 114 122 116 117 117 124 107 97 106 117 119 122 110 98 87 75 56 35 32 28 33 22 16 18 4 1 1 355 357 356 354 342 337
81 78 70 67 100 104 109 101 89 107 109 111 113 117 106 124 109 108 96 92 72 73 93 98 98 73 53 42 38 31 27 26 10 3 338 358 14 9 1 357 357 358 354 347 337
69 78 75 84 89 100 97 90 97 104 111 115 112 108 105 99 95 102 98 95 94 88 83 85 78 46 31 29 23 21 18 20 13 7 358 4 2 345 358 1 355 354 352 346 337
62 77 72 85 81 89 85 92 101 111 115 116 95 98 100 108 111 100 97 92 87 71 63 64 63 46 36 23 14 19 23 7 5 359 349 351 347 350 352 350 349 347 347 344 336
52 71 55 62 73 51 77 88 100 111 113 105 96 94 91 87 84 77 78 70 71 54 36 40 51 37 24 22 13 11 6 2 359 355 347 344 343 349 343 344 345 344 344 340 337
49 70 52 57 54 66 69 80 84 85 97 91 85 80 79 73 70 69 67 57 48 39 34 35 25 17 6 6 11 7 358 355 350 345 338 333 318 344 344 344 342 340 338 339 339
23 52 36 43 54 54 69 67 74 67 69 67 60 57 56 57 63 50 49 44 40 34 28 24 16 3 5 13 10 357 354 345 343 339 326 328 329 345 340 338 334 332 335 337 338
21 36 7 18 44 47 52 57 55 68 58 54 48 45 44 49 50 47 37 35 28 21 18 16 9 0 341 339 349 337 337 337 335 331 327 315 309 320 324 329 333 334 336 340 339
6 18 22 16 16 30 41 41 39 43 55 44 38 44 38 32 24 28 19 13 13 15 11 5 348 342 332 330 330 322 324 328 319 311 320 314 319 319 327 331 334 338 341 340 340
6 7 10 10 11 14 15 18 27 33 35 31 31 26 32 25 19 7 4 359 359 1 356 352 344 344 333 336 337 329 325 324 318 318 314 311 315 323 331 340 341 340 339 340 341
0 2 2 3 3 8 17 16 6 8 13 18 17 9 9 7 5 0 355 350 347 345 344 342 343 343 336 346 339 341 348 342 342 338 333 329 330 339 340 339 339 339 341 342 342